Regional Weather Roundup
Issued by NWS

Home | Current Version | Previous Version | Graphics & Text | Print | Product List | Glossary On
Versions: 1 2 3 4 5 6 7 8 9 10 11 12 13 14 15 16 17 18 19 20 21 22 23 24 25 26 27 28 29 30 31 32 33 34 35 36 37 38 39 40 41 42 43 44 45 46 47 48 49 50
000
ASUS43 KMKX 291500
RWRWI

WISCONSIN REGIONAL WEATHER ROUNDUP
NATIONAL WEATHER SERVICE MILWAUKEE/SULLIVAN WI
1000 AM CDT MON MAY 29 2017

NOTE: "FAIR" INDICATES FEW OR NO CLOUDS BELOW 12,000 FEET WITH NO
SIGNIFICANT WEATHER AND/OR OBSTRUCTIONS TO VISIBILITY.

WIZ001-002-006>008-014>016-023>028-291600-
NORTHWEST WISCONSIN

CITY           SKY/WX    TMP DP  RH WIND       PRES   REMARKS
SUPERIOR ARPT  NOT AVBL
ASHLAND        CLOUDY    57  49  74 W15       29.66R
HAYWARD        RAIN      53  48  83 W5        29.71R
SIREN          CLOUDY    54  48  82 W8        29.74R
CUMBERLAND     CLOUDY    52  46  82 W12       29.74S
RICE LAKE      CLOUDY    53  48  83 W10       29.76R
CHETEK         CLOUDY    55  49  81 W8G16     29.75R
LADYSMITH      CLOUDY    56  51  85 W7        29.73S
EAU CLAIRE     NOT AVBL
MENOMONIE      CLOUDY    56  48  74 W12       29.77S
NEW RICHMOND   CLOUDY    55  47  73 W10       29.78S
OSCEOLA        CLOUDY    55  48  78 W13       29.80R
$$

WIZ003>005-009-010-017-018-291600-
NORTH CENTRAL WISCONSIN

CITY           SKY/WX    TMP DP  RH WIND       PRES   REMARKS
MANITOWISH WTR CLOUDY    53  53 100 SW7       29.66S
ARBOR VITAE    CLOUDY    52  50  93 SW9       29.67S FOG
WOODRUFF       CLOUDY    52  50  93 SW9       29.67S FOG
RHINELANDER    CLOUDY    54  49  83 W14       29.68S
EAGLE RIVER    CLOUDY    52  49  92 W12       29.66F
LAND O LAKES   CLOUDY    51  49  91 SW8       29.67R
PHILLIPS       CLOUDY    52  50  93 W7        29.69S
TOMAHAWK       CLOUDY    51  47  86 W5        29.70S
MEDFORD        HVY RAIN  51  49  95 W7        29.72R
MERRILL        CLOUDY    53  50  89 W9        29.71S
$$

WIZ029-030-035-036-043>047-291600-
CENTRAL WISCONSIN

CITY           SKY/WX    TMP DP  RH WIND       PRES   REMARKS
WAUSAU         CLOUDY    53  49  86 W12       29.71R
MOSINEE        LGT RAIN  54  52  94 W12G18    29.73S
MARSHFIELD     LGT RAIN  52  49  89 W10       29.73S
STEVENS POINT  CLOUDY    53  48  84 W8G17     29.74R
WAUPACA        PTSUNNY   61  50  67 W17       29.73R
WAUTOMA        CLOUDY    60  49  66 W16G25    29.75R
WISC RAPIDS    LGT RAIN  54  51  90 W9        29.76R
CAMP DOUGLAS   NOT AVBL
$$

WIZ011>013-019>022-031-037>040-048>050-291600-
NORTHEAST WISCONSIN

CITY           SKY/WX    TMP DP  RH WIND       PRES   REMARKS
ANTIGO         CLOUDY    53  49  89 W13       29.70R
SHAWANO        CLOUDY    64  50  59 W15G21    29.69R
OCONTO         SUNNY     63  48  58 W12G20    29.66S
STURGEON BAY   CLOUDY    61  49  64 SW15G24   29.67S
GREEN BAY      SUNNY     64  52  64 W17       29.69S
MANITOWOC      NOT AVBL
APPLETON       PTSUNNY   63  45  51 W14G23    29.70R
CLINTONVILLE   MOSUNNY   63  46  55 W20       29.69S
OSHKOSH        MOSUNNY   62  48  60 W15G23    29.71S
$$

WIZ032>034-041-042-053>061-291600-
SOUTHWEST WISCONSIN

CITY           SKY/WX    TMP DP  RH WIND       PRES   REMARKS
LA CROSSE      PTSUNNY   63  49  60 W12       29.79S
SPARTA         CLOUDY    58  49  70 W13       29.79S
VIROQUA        CLOUDY    58  46  64 W14G21    29.81R
BOSCOBEL       PTSUNNY   64  47  53 NW13G22   29.82R
PRAIRIE DU CHI SUNNY     64  44  49 W14G23    29.83S
PLATTEVILLE    SUNNY     63  49  61 W18G28    29.84R
$$

WIZ056-057-062-063-064-067-068-291600-
SOUTH CENTRAL WISCONSIN

CITY           SKY/WX    TMP DP  RH WIND       PRES   REMARKS
REEDSBURG      PTSUNNY   61  49  64 W14G22    29.78S
BARABOO/DELLS  PTSUNNY   60  46  60 W16G24    29.78R
LONE ROCK      NOT AVBL
MINERAL POINT  SUNNY     63  46  55 W22G28    29.81S
MADISON        MOSUNNY   63  47  55 W13G23    29.77R
MIDDLETON      MOSUNNY   65  49  56 W17G25    29.79S
WATERTOWN      SUNNY     63  47  56 W15G23    29.76R
MONROE         SUNNY     61  45  55 W22G28    29.81R
JANESVILLE     MOSUNNY   66  48  52 W13G22    29.79R
$$

WIZ051-052-058>065-066-070>072-291600-
SOUTHEAST WISCONSIN

CITY           SKY/WX    TMP DP  RH WIND       PRES   REMARKS
MILWAUKEE      MOSUNNY   70  45  40 W17G24    29.74F
WAUKESHA       SUNNY     64  46  52 W17G25    29.76F
MILWAUKEE/TIMM SUNNY     66  43  42 W16G26    29.75F
RACINE         SUNNY     69  45  41 W13G24    29.77F
KENOSHA        SUNNY     70  46  42 W23G32    29.77S
FOND DU LAC    MOSUNNY   64  46  52 W18G29    29.72F
SHEBOYGAN      MOSUNNY   65  52  62 W15G25    29.70S
WEST BEND      SUNNY     63  45  51 W18G26    29.73S
JUNEAU         SUNNY     61  48  61 SW17G24   29.76S
$$

LSZ147-162-291600-
LAKE SUPERIOR

STATION/POSITION TIME  TEMP    WIND        PRES    WAVE
                       AIR SEA DIR/SP/G            HT/PER
                 (UTC) (F)     (DEG/KT/KT) (MB)    (FT/S)
W MID LAKE BUOY  1350   42 37  260/ 12/ 14 1001.8R   2/ 3
DEVILS ISLAND    1400   46     240/ 17/ 19 1003.1R
PORT WING        1240   54     250/ 12/ 19 1004.1R
SAXON HARBOR     1440   58     280/  7/ 11 1003.7R
$$

LMZ867-665-643>646-291600-
LAKE MICHIGAN

STATION/POSITION TIME  TEMP    WIND        PRES    WAVE
                       AIR SEA DIR/SP/G            HT/PER
                 (UTC) (F)     (DEG/KT/KT) (MB)    (FT/S)
CHAMBERS ISLAND  1440   60     210/  5/ 10 1003.7F
N MID LAKE BUOY  1350   45 41  200/ 10/ 10 1005.1S   1/ 4
NORTHPORT PIER   1440   62     240/  6/ 13 1003.7F
KEWAUNEE LAKESHO 1430   63     270/ 10/ 17 1004.7R
SHEBOYGAN LAKESH 1400   63     250/ 17/ 21 1005.2F
PORT WASHINGTON  1440   68     260/ 12/ 23 1007.1F
ATWATER BUOY     1309   61     260/ 14/ 16 1007.1F
MILWAUKEE LAKESH 1430   65     250/ 13/ 16   N/A
S MID LAKE BUOY  1350   52 46  260/ 12/ 12 1007.8R   1/ 3
KENOSHA   LAKESH 1400   67     270/ 20/ 27 1008.5
$$

TC  - TEMPERATURE IN CELSIUS
VSB - VISIBILITY IN STATUTE MILES
WCI - WIND CHILL INDEX
HX  - HEAT INDEX





USA.gov is the U.S. government's official web portal to all federal, state and local government web resources and services.